Regional Weather Roundup
Issued by NWS Goodland, KS

Home | Current Version | Previous Version | Graphics & Text | Print | Product List | Glossary On
Versions: 1 2 3 4 5 6 7 8 9 10 11 12 13 14 15 16 17 18 19 20 21 22 23 24 25 26 27 28 29 30 31 32 33 34 35 36 37 38 39 40 41 42 43 44 45 46 47 48 49 50
000
ASUS43 KGLD 290708
RWRGLD

GOODLAND FORECAST AREA HOURLY WEATHER ROUNDUP
NATIONAL WEATHER SERVICE GOODLAND KS
100 AM MDT MON MAY 29 2017

...OFFICIAL OBSERVATIONS...

CITY           SKY/WX    TMP DP  RH WIND       PRES   REMARKS
GOODLAND KS    CLOUDY    51  47  86 NW8       30.15F
HILL CITY KS   PTCLDY    56  51  84 N8        30.07R
IMPERIAL NEB   CLEAR     51  45  79 W10       30.13S
MCCOOK NEB     CLEAR     52  47  83 SW8       30.08F
AKRON CO       PTCLDY    52  42  69 NW9       30.23R
BURLINGTON CO  CLOUDY    50  45  83 W6        30.18S
LIMON CO       MOCLDY    50  44  80 NE22G30   30.25F
$$

...UNOFFICIAL OBSERVATIONS...

CITY           SKY/WX    TMP DP  RH WIND       PRES   REMARKS
LENORA KS        N/A     56  32  40 MISG        N/A
NORTON KS      CLEAR     54  46  76 W7        30.06R
SHARON SPRINGS   N/A     52  45  77 N9          N/A
TRENTON NEB      N/A     51  32  48 CALM        N/A
KIT CARSON CO    N/A     50  43  75 MISG        N/A
YUMA CO        FAIR      50  36  57 NW6       30.20S
$$



USA.gov is the U.S. government's official web portal to all federal, state and local government web resources and services.